Weather History for Sylvania, GA

Change the Weather History Date:

Monday, April 28, 2014

  Actual Average (KSAV) Record (KSAV)
Temperature  
Mean Temperature 78 °F 68 °F  
Max Temperature 86 °F 81 °F 93 °F (1942)
Min Temperature 69 °F 57 °F 42 °F (1898)
Degree Days  
Heating Degree Days 0 1  
Month to date heating degree days 74  
Since 1 July heating degree days 1801  
Cooling Degree Days 12 5  
Month to date cooling degree days 84  
Year to date cooling degree days 126  
Growing Degree Days 28 (Base 50)    
Moisture  
Dew Point 65 °F    
Average Humidity 69    
Maximum Humidity 90    
Minimum Humidity 42    
Precipitation  
Precipitation 0.00 in 0.08 in 1.91 in (1997)
Month to date precipitation 2.89  
Year to date precipitation 13.10  
Sea Level Pressure  
Sea Level Pressure 29.92 in    
Wind  
Wind Speed 4 mph (SSW)    
Max Wind Speed 9 mph    
Max Gust Speed -    
Visibility 9 miles    
Events      
T = Trace of Precipitation, MM = Missing Value Source: NWS Daily Summary

Daily Weather History Graph

Daily Weather History Graph

Search for Another Location

Airport:

Trip Planner

Search our weather history database for the weather conditions in past years. The results will help you decide how hot, cold, wet, or windy it might be!

Date:

Astronomy

Apr. 28, 2014 Rise Set
Actual Time 6:42 AM EDT 8:05 PM EDT
Civil Twilight 6:16 AM EDT 8:31 PM EDT
Nautical Twilight 5:45 AM EDT 9:02 PM EDT
Astronomical Twilight 5:13 AM EDT 9:35 PM EDT
Moon 6:16 AM EDT (4/28) 7:43 PM EDT (4/28)
Length of Visible Light 14h 15m
Length of Day
13h 23m
Waning Crescent, 0% of the Moon is Illuminated
Apr 28
Waning Crescent
Apr 29
New
May 6
First Quarter
May 14
Full
May 21
Last Quarter

Hourly Weather History & Observations

Time (EDT) Temp. Heat Index Dew Point Humidity Pressure Visibility Wind Dir Wind Speed Gust Speed Precip Events Conditions
12:15 AM 72.5 °F - 62.6 °F 71% 29.99 in 10.0 mi South 3.5 mph - N/A   Scattered Clouds
12:35 AM 72.5 °F - 63.0 °F 72% 29.99 in 10.0 mi South 3.5 mph - N/A   Scattered Clouds
12:55 AM 72.1 °F - 63.5 °F 74% 29.98 in 10.0 mi South 4.6 mph - N/A   Clear
1:15 AM 72.0 °F - 63.9 °F 76% 29.98 in 10.0 mi Calm Calm - N/A   Clear
1:35 AM 71.8 °F - 64.4 °F 77% 29.97 in 10.0 mi South 3.5 mph - N/A   Clear
1:55 AM 71.4 °F - 64.6 °F 79% 29.97 in 10.0 mi South 3.5 mph - N/A   Clear
2:15 AM 71.1 °F - 64.9 °F 81% 29.95 in 10.0 mi South 3.5 mph - N/A   Clear
2:35 AM 71.1 °F - 65.5 °F 82% 29.94 in 10.0 mi South 3.5 mph - N/A   Clear
2:55 AM 71.1 °F - 65.8 °F 84% 29.94 in 10.0 mi SSW 3.5 mph - N/A   Clear
3:15 AM 71.1 °F - 66.2 °F 85% 29.94 in 10.0 mi Calm Calm - N/A   Clear
3:35 AM 70.7 °F - 66.2 °F 86% 29.94 in 10.0 mi South 3.5 mph - N/A   Clear
3:55 AM 70.7 °F - 66.4 °F 86% 29.94 in 7.0 mi Calm Calm - N/A   Clear
4:15 AM 70.3 °F - 66.6 °F 88% 29.93 in 7.0 mi South 4.6 mph - N/A   Clear
4:35 AM 70.7 °F - 67.1 °F 88% 29.94 in 7.0 mi Calm Calm - N/A   Clear
4:55 AM 70.3 °F - 66.7 °F 88% 29.95 in 7.0 mi Calm Calm - N/A   Clear
5:15 AM 70.2 °F - 66.7 °F 89% 29.94 in 7.0 mi Calm Calm - N/A   Clear
5:35 AM 70.2 °F - 67.1 °F 90% 29.94 in 7.0 mi Calm Calm - N/A   Scattered Clouds
5:55 AM 70.0 °F - 66.9 °F 90% 29.94 in 7.0 mi Calm Calm - N/A   Scattered Clouds
6:15 AM 70.0 °F - 66.7 °F 89% 29.93 in 7.0 mi South 3.5 mph - N/A   Scattered Clouds
6:35 AM 69.8 °F - 66.6 °F 89% 29.93 in 7.0 mi Calm Calm - N/A   Clear
6:55 AM 69.8 °F - 66.4 °F 89% 29.94 in 7.0 mi Calm Calm - N/A   Clear
7:15 AM 70.0 °F - 66.9 °F 90% 29.93 in 5.0 mi South 4.6 mph - N/A   Clear
7:35 AM 70.7 °F - 67.3 °F 89% 29.94 in 7.0 mi South 4.6 mph - N/A   Clear
7:55 AM 71.6 °F - 67.8 °F 88% 29.94 in 7.0 mi South 3.5 mph - N/A   Clear
8:15 AM 72.5 °F - 68.0 °F 86% 29.94 in 7.0 mi South 4.6 mph - N/A   Clear
8:35 AM 73.6 °F - 68.4 °F 84% 29.94 in 10.0 mi South 5.8 mph - N/A   Clear
8:55 AM 74.7 °F - 68.4 °F 81% 29.93 in 10.0 mi South 5.8 mph - N/A   Clear
9:15 AM 76.1 °F - 68.5 °F 77% 29.94 in 10.0 mi SSW 4.6 mph - N/A   Clear
9:55 AM 77.9 °F - 68.9 °F 74% 29.94 in 10.0 mi SW 4.6 mph - N/A   Clear
10:15 AM 78.6 °F - 68.4 °F 71% 29.95 in 10.0 mi SW 4.6 mph - N/A   Mostly Cloudy
10:35 AM 79.2 °F - 68.5 °F 70% 29.95 in 10.0 mi SSW 5.8 mph - N/A   Mostly Cloudy
10:55 AM 79.9 °F - 66.6 °F 64% 29.95 in 10.0 mi SSW 8.1 mph - N/A   Scattered Clouds
11:15 AM 82.0 °F 84.3 °F 66.6 °F 59% 29.95 in 10.0 mi SW 9.2 mph - N/A   Clear
11:35 AM 82.4 °F 84.6 °F 66.4 °F 58% 29.95 in 10.0 mi SSW 5.8 mph - N/A   Clear
12:15 PM 83.7 °F 85.5 °F 65.5 °F 54% 29.96 in 10.0 mi SSW 5.8 mph - N/A   Clear
12:35 PM 85.1 °F 86.6 °F 64.6 °F 50% 29.95 in 10.0 mi SW 9.2 mph - N/A   Clear
12:55 PM 86.0 °F 87.1 °F 63.7 °F 47% 29.94 in 10.0 mi WSW 8.1 mph - N/A   Clear
1:15 PM 86.5 °F 86.5 °F 60.8 °F 42% 29.94 in 10.0 mi SW 8.1 mph - N/A   Clear
1:35 PM 86.9 °F 87.0 °F 61.0 °F 42% 29.94 in 10.0 mi SW 6.9 mph - N/A   Scattered Clouds
1:55 PM 86.0 °F 86.3 °F 61.5 °F 44% 29.94 in 10.0 mi SW 8.1 mph - N/A   Scattered Clouds
2:15 PM 86.4 °F 87.0 °F 62.8 °F 45% 29.93 in 10.0 mi WSW 5.8 mph - N/A   Scattered Clouds
2:35 PM 86.0 °F 86.1 °F 61.2 °F 43% 29.94 in 10.0 mi WSW 9.2 mph - N/A   Scattered Clouds
2:55 PM 85.6 °F 85.9 °F 61.3 °F 44% 29.93 in 10.0 mi SW 8.1 mph - N/A   Scattered Clouds
3:15 PM 84.9 °F 85.4 °F 61.9 °F 46% 29.92 in 10.0 mi SW 8.1 mph - N/A   Clear
3:35 PM 84.9 °F 85.4 °F 62.1 °F 46% 29.92 in 10.0 mi SW 8.1 mph - N/A   Clear
3:55 PM 84.6 °F 85.4 °F 62.8 °F 48% 29.92 in 10.0 mi WSW 3.5 mph - N/A   Clear
4:35 PM 85.1 °F 86.4 °F 63.9 °F 49% 29.91 in 10.0 mi WSW 4.6 mph - N/A   Clear
4:55 PM 86.2 °F 87.3 °F 63.7 °F 47% 29.90 in 10.0 mi SW 3.5 mph - N/A   Clear
5:15 PM 86.2 °F 86.8 °F 62.8 °F 45% 29.89 in 10.0 mi SSW 6.9 mph - N/A   Clear
5:35 PM 86.7 °F 87.8 °F 63.5 °F 46% 29.89 in 10.0 mi SW 4.6 mph - N/A   Clear
5:55 PM 86.4 °F 87.0 °F 63.0 °F 45% 29.89 in 10.0 mi WSW 5.8 mph - N/A   Clear
6:15 PM 86.0 °F 86.6 °F 62.2 °F 45% 29.88 in 10.0 mi WSW 5.8 mph - N/A   Clear
6:35 PM 85.3 °F 86.1 °F 63.1 °F 47% 29.87 in 10.0 mi SW 4.6 mph - N/A   Clear
6:55 PM 83.8 °F 85.1 °F 63.7 °F 51% 29.86 in 10.0 mi SSW 4.6 mph - N/A   Clear
7:15 PM 82.9 °F 84.2 °F 63.7 °F 52% 29.85 in 10.0 mi Calm Calm - N/A   Clear
7:35 PM 81.7 °F 83.3 °F 64.4 °F 56% 29.85 in 10.0 mi Calm Calm - N/A   Clear
7:55 PM 80.2 °F 82.1 °F 65.1 °F 60% 29.86 in 10.0 mi Calm Calm - N/A   Clear
8:15 PM 76.6 °F - 66.6 °F 71% 29.86 in 10.0 mi Calm Calm - N/A   Clear
8:35 PM 75.4 °F - 66.4 °F 73% 29.87 in 10.0 mi Calm Calm - N/A   Clear
8:55 PM 75.2 °F - 67.1 °F 76% 29.88 in 10.0 mi Calm Calm - N/A   Clear
9:15 PM 74.5 °F - 67.1 °F 78% 29.88 in 10.0 mi Calm Calm - N/A   Clear
9:35 PM 73.4 °F - 66.4 °F 79% 29.88 in 10.0 mi Calm Calm - N/A   Clear
9:55 PM 73.6 °F - 66.4 °F 78% 29.88 in 10.0 mi SSE 3.5 mph - N/A   Clear
10:15 PM 74.5 °F - 66.6 °F 76% 29.89 in 10.0 mi South 3.5 mph - N/A   Clear
10:55 PM 75.4 °F - 68.0 °F 78% 29.90 in 10.0 mi Calm Calm - N/A   Clear
11:15 PM 75.7 °F - 68.0 °F 77% 29.91 in 10.0 mi South 3.5 mph - N/A   Clear
11:35 PM 75.6 °F - 68.0 °F 77% 29.91 in 10.0 mi South 4.6 mph - N/A   Clear
11:55 PM 75.4 °F - 67.8 °F 77% 29.90 in 10.0 mi South 4.6 mph - N/A   Clear